Location: Aufkirchen
(47.9603°N, 11.3653°E)
Time: 06:14:53
(UTC+01:00)

Transit 2A - Pass Details

Date: 30 November 2020
Orbit: 599 x 960 km, 66.7° (Epoch: 25 January)

Event Time Altitude Azimuth Distance (km) Brightness Sun altitude
Rises 21:03:34 0° 297° (WNW) 3,538 10.2 -45.7°
Enters shadow 21:07:40 - 324° (NW) 2,586 9.2 -46.3°
Reaches altitude 10° 21:08:07 10° 328° (NNW) 2,518 - -46.4°
Maximum altitude 21:10:12 12° 349° (N) 2,344 - -46.7°
Drops below altitude 10° 21:12:15 10° 11° (N) 2,433 - -47.1°
Sets 21:16:26 0° 42° (NE) 3,265 - -47.7°
